Lid_Strength_Index
14 13 14 13 13 12 11 10 8 7 6 5 7 6 3 3 2 2 0 0 0 0 1 1 1 1 2
15 14 14 13 13 13 12 10 9 7 5 5 7 7 6 3 3 3 1 1 1 1 2 1 1 1 3
16 14 14 13 13 13 12 12 9 8 7 6 6 7 5 3 4 4 4 2 2 3 2 2 2 2 2
15 15 14 13 13 14 14 12 11 9 8 5 4 5 5 4 4 5 5 3 3 3 3 3 3 3 3
14 15 15 15 14 13 14 13 12 9 9 8 7 5 5 4 5 6 5 3 3 3 3 3 4 4 4
13 14 15 14 13 13 13 14 14 8 11 12 9 7 7 4 5 6 6 5 4 4 4 4 4 4 4
12 12 13 13 12 12 13 14 14 12 12 12 9 10 7 7 6 6 6 6 4 4 4 5 5 5 5
9 11 11 11 11 11 12 13 12 11 10 12 9 8 8 7 6 6 6 7 6 4 5 5 5 5 5
6 7 8 9 9 11 12 13 14 12 10 10 9 9 8 8 7 6 6 7 7 5 5 5 6 6 6
8 8 8 9 8 9 10 12 14 14 10 11 10 9 11 8 7 6 6 7 7 6 5 5 6 6 7
8 9 9 11 11 11 11 12 13 13 10 10 11 13 14 13 9 6 6 7 7 7 7 6 6 6 7
8 9 9 10 11 11 11 11 11 12 10 11 12 14 16 16 14 7 6 6 6 7 8 7 6 6 6
7 7 8 9 10 11 11 11 11 11 10 10 11 14 15 16 16 15 8 7 6 7 8 8 8 8 8
7 7 8 9 11 11 12 12 12 12 11 10 10 12 15 16 16 16 14 9 7 7 8 8 8 8 7
6 6 8 9 9 11 12 12 13 13 13 11 10 13 14 14 16 15 14 13 7 7 8 10 9 9 8
6 6 8 8 9 10 11 12 13 13 13 11 12 15 15 14 14 15 14 13 9 8 8 10 11 9 8
7 7 7 8 9 10 11 12 13 12 13 11 11 14 16 16 13 13 14 13 9 9 8 10 11 10 9